Tracking 25710 objects as of 7-Jul-2022
HD Live streaming from Space Station
objects crossing your sky now

FENGYUN 1C DEB

Track FENGYUN 1C DEB now!
10-day predictions


NORAD ID: 36994
Int'l Code: 1999-025ECA
Perigee: 850.1 km
Apogee: 1,021.4 km
Inclination: 98.6 °
Period: 103.6 minutes
Semi major axis: 7306 km
RCS: 0.0026 m2 (small)
Launch date: May 10, 1999
Source: People's Republic of China (PRC)
Launch site: Taiyaun Space Center, China (TSC)

Note: This is SATELLITE DEBRIS
aabbcc
Your satellite tracking list
Your tracking list is empty




NASA's NSSDC Master Catalog

Two Line Element Set (TLE):
1 36994U 99025ECA 22185.39305632  .00000091  00000-0  99401-4 0  9992
2 36994  98.6170 225.7026 0117236 152.8188 207.9174 13.90014374634354
Source of the keplerian elements: AFSPC